map of PLL home
Great Circle Mapper logo
PLL - Airport
Location
City:  Manaus, Amazonas, Brazil
Name:Manaus AFB
Old (Alt.):Ponta Pelada Airport
ICAO / IATA:SBMN / PLL

Details
Type:Airport (Aerodrome, Airfield)
Use:Military
Latitude:308'46"S (-3.146041)
Longitude:5959'11"W (-59.986299)
Datum:WGS 1984
Elevation:267 ft (81 m)
Variation:15.48W (WMM2015 magnetic declination)
-0.12 annual change
Runways:1
Longest:7605 × 148 ft (2318 × 45 m), paved

Time
Time Zone:UTC-4
Local Time:

Weather
METAR:SBMN 261100Z 06002KT 9999 SCT006 26/24 Q1013
TAF:SBMN 260400Z 2606/2706 09003KT 9999 FEW010 TN24/2607Z TX30/2617Z
BECMG 2611/2613 05005KT BKN015
BECMG 2614/2616 14005KT SCT020 FEW025TCU PROB30 2618/2620 TS SCT020 FEW025CB
BECMG 2622/2624 09003KT FEW015
RMK PEH

Related Locations
Nearby:
Farthest:SMM: 12307 mi / 19806 km
Semporna, Sabah, MY

Find:

   beyond  
but within

Other Information
Maps:
NOTAMs:
Links:
Sources:

  
flag of Brazil
flag of Amazonas
flag of Manaus
  

Sectional Chart

Flight Planning
at skyvector.com

Satellite Image

Google Maps Satellite View

 

Copyright © 2004-2015 Karl L. Swartz. All rights reserved.
The Great Circle Mapper name and logo are trademarks of the Great Circle Mapper.
All other trademarks mentioned herein belong to their respective owners.
Please see credits for attibutions and further copyright information.

  Follow gcmap on Facebook Follow gcmap on Twitter Follow gcmap on Google+

hCard Microformat

Geo Microformat